GEFSNGP_500_meanwind_000.txt.gz
Wind_Speed
37 35 35 37 36 37 38 38 38 33 37 38 38 36 37 37 37 36 35 36 38 41 39 39 42 44 46 50 50 51 49 44 42 40 39 41 42 43 45 45 45 46 47 48
38 38 38 37 36 37 37 35 36 34 36 37 35 33 33 34 36 37 37 39 41 43 46 48 50 53 54 51 50 51 47 43 43 43 42 42 42 43 43 44 44 46 48 50
39 40 39 40 39 40 39 38 39 39 39 41 38 38 38 39 40 41 43 46 48 50 52 53 53 53 46 47 48 47 44 42 45 47 43 41 40 41 43 44 45 47 50 50
39 40 40 42 40 41 43 45 47 47 48 47 47 46 46 47 48 49 50 52 51 52 51 50 49 40 44 47 44 45 43 44 49 44 40 41 40 41 44 45 47 49 50 49
38 38 38 40 39 40 42 47 48 52 56 56 56 55 53 53 53 51 50 48 47 49 49 51 41 44 48 37 44 45 42 46 41 39 41 41 41 42 44 47 49 50 48 47
35 36 38 39 38 39 40 43 43 45 48 51 52 52 50 49 47 46 45 45 46 48 46 41 41 43 37 43 48 43 39 37 36 38 41 41 42 44 46 49 48 47 46 46
32 34 36 37 38 38 39 40 40 41 43 45 45 46 45 45 44 43 44 44 44 43 38 42 43 43 50 51 48 42 37 36 36 38 39 41 43 45 47 48 47 47 47 45
28 30 33 33 33 33 33 32 32 33 34 34 35 36 37 38 39 38 39 38 37 34 31 42 45 45 46 41 36 33 33 35 35 37 39 42 44 45 46 47 48 48 46 42
30 32 34 35 35 33 30 28 27 26 25 24 24 26 29 31 32 31 30 30 30 29 34 38 38 39 36 33 31 30 30 32 35 37 40 42 43 45 47 48 47 44 40 35
32 33 36 37 37 36 33 29 27 25 22 20 20 20 22 22 22 23 23 24 26 29 35 37 33 30 27 28 27 26 29 33 36 39 40 42 44 46 46 43 38 33 30 30
32 34 37 39 40 38 34 30 26 23 21 18 16 15 14 15 17 17 18 21 24 27 30 28 25 23 23 23 23 26 31 34 37 38 40 42 43 42 38 32 27 26 27 28
25 27 28 32 34 31 26 20 17 18 18 16 12 6 6 7 7 10 13 18 21 18 16 17 17 17 18 20 24 28 31 34 36 39 41 41 38 33 28 22 22 26 28 24
14 16 18 19 16 14 15 15 17 16 14 12 13 9 1 3 7 9 12 13 9 11 13 13 13 16 20 24 27 29 32 35 38 39 38 34 29 24 20 20 23 26 24 18
14 15 12 8 8 12 13 12 12 10 10 11 15 13 6 6 7 6 7 7 8 8 8 10 15 19 23 25 28 30 33 36 37 36 31 25 20 17 18 21 23 23 19 14
3 3 4 5 9 14 15 14 12 11 11 10 10 6 3 2 2 4 6 6 4 5 9 14 18 21 24 27 31 32 34 35 34 28 21 16 15 17 21 22 21 18 15 11
3 4 9 13 13 17 19 15 12 11 11 9 8 7 6 4 6 7 4 2 4 8 13 17 20 24 28 31 31 32 33 31 25 19 16 16 18 20 21 20 17 14 13 12
3 7 17 20 20 17 15 12 10 10 9 8 8 6 5 5 5 2 1 3 7 12 16 19 23 27 30 30 30 30 27 22 18 16 17 18 19 19 19 18 14 10 9 10
8 12 17 17 17 16 13 10 9 8 8 7 5 2 1 0 2 3 3 7 12 15 18 21 25 29 30 28 26 24 21 17 16 17 18 19 18 17 18 18 14 9 7 8
14 15 14 14 14 13 11 8 7 7 7 5 4 3 2 3 4 5 6 11 13 16 19 23 26 28 26 25 21 19 19 19 18 18 19 19 18 17 17 17 15 12 9 10
16 16 12 11 10 9 7 7 7 7 6 5 4 3 5 7 7 7 10 12 14 17 20 23 25 25 24 24 21 17 17 19 19 19 20 20 19 17 16 16 16 14 13 14
10 11 11 10 8 6 5 6 7 6 6 5 4 7 10 11 9 10 12 13 16 19 21 22 25 27 27 26 23 20 19 19 20 20 20 21 20 19 17 16 16 16 15 16
16 14 9 6 7 8 7 8 9 8 6 5 8 12 13 12 11 12 14 15 17 19 21 24 28 31 32 31 27 24 23 23 24 24 23 23 22 21 20 19 18 16 16 17
18 16 12 9 9 10 11 11 11 10 8 9 14 16 15 13 12 13 14 16 18 19 22 27 31 34 35 35 33 29 27 27 28 28 28 28 27 25 24 23 21 19 18 18
19 15 13 13 13 13 14 13 12 11 11 13 17 17 14 12 12 13 15 17 18 19 23 28 33 35 36 38 38 36 33 31 30 31 32 34 34 32 29 28 26 22 20 20
18 17 16 16 14 15 16 15 13 12 14 17 19 18 15 12 12 14 15 16 17 19 22 27 31 35 37 38 38 39 38 37 35 34 33 34 35 36 36 35 33 29 25 23
18 18 17 16 14 15 15 14 13 13 15 19 21 19 16 13 12 14 15 15 17 18 20 24 28 31 35 37 39 40 41 40 38 37 36 36 37 38 38 38 38 37 35 32
17 18 17 16 15 14 14 13 12 13 16 20 22 20 17 14 13 13 14 15 16 17 20 22 25 28 30 33 35 38 40 42 43 42 40 39 38 38 39 39 39 39 38 37

GEFSNGP_500_meanwind_006.txt.gz
Wind_Speed
36 32 28 28 33 33 30 29 29 28 27 31 35 40 40 38 35 26 22 25 30 34 39 41 40 39 41 45 48 51 51 50 48 50 55 53 51 49 49 51 53 55 56 55
38 36 36 32 30 29 26 24 27 29 28 37 43 45 46 43 36 33 32 31 33 36 39 41 43 45 47 51 53 53 52 50 49 54 58 55 50 48 51 53 54 55 54 53
35 36 37 40 36 34 36 35 35 36 41 46 47 47 47 47 47 45 42 40 41 43 45 47 49 51 53 55 54 52 51 50 51 56 60 56 51 50 52 53 53 52 51 52
34 37 40 36 34 39 43 45 45 46 46 45 43 43 44 47 49 49 48 47 48 50 51 52 54 54 54 52 50 49 50 50 54 58 58 54 49 49 49 48 48 49 51 53
37 38 40 33 37 41 44 47 47 45 44 43 43 44 45 46 48 50 50 50 50 50 50 50 50 49 48 47 47 48 49 52 57 56 54 51 47 46 44 45 47 50 52 53
35 37 38 36 40 41 41 44 43 41 40 39 40 43 44 44 46 48 50 50 50 48 47 45 45 45 45 45 46 46 48 53 56 54 51 46 43 42 43 46 48 50 51 53
30 32 32 37 40 41 42 44 42 39 36 37 39 41 41 41 42 42 44 45 44 43 42 42 42 41 42 42 43 44 47 51 52 52 49 43 40 42 44 47 48 50 51 50
25 27 31 36 38 41 42 41 39 37 35 35 36 37 37 36 36 36 37 38 37 36 35 34 35 35 37 38 41 44 47 48 47 45 43 43 43 45 46 48 49 49 46 41
26 27 29 33 37 38 36 36 34 34 34 35 35 35 34 33 32 32 31 30 29 28 28 29 30 32 34 37 40 43 43 42 40 39 40 42 44 45 46 47 45 40 33 28
26 28 31 35 35 33 33 34 34 35 36 37 36 35 32 30 29 27 26 25 25 25 25 26 28 32 35 37 37 37 37 37 37 38 40 42 43 44 43 39 32 25 22 24
26 28 32 34 34 34 35 36 37 37 37 36 35 32 29 27 25 23 22 21 20 21 23 26 29 30 31 30 31 32 34 37 38 39 39 39 39 37 32 24 19 20 23 25
26 28 30 31 32 32 31 32 32 33 33 33 31 28 25 23 20 19 18 18 19 20 22 23 23 23 25 27 30 33 35 36 37 36 36 34 30 24 19 19 21 23 23 23
22 23 23 23 23 23 23 24 23 23 22 20 20 20 18 17 15 15 16 16 16 18 19 20 21 23 26 29 31 33 34 35 34 32 28 23 19 18 20 22 23 22 19 18
17 18 20 21 20 19 17 13 10 9 9 11 13 13 13 13 13 13 12 12 14 16 17 18 21 24 26 29 31 32 32 30 27 23 19 18 20 21 23 23 21 18 14 13
12 12 11 10 8 9 8 7 6 5 6 7 8 9 10 11 9 8 9 11 13 14 16 19 22 26 29 31 31 30 28 24 21 19 19 21 22 22 21 20 18 14 10 10
4 4 3 2 3 4 5 5 4 4 4 4 4 4 4 4 4 7 8 10 12 15 18 21 25 28 30 29 28 24 21 20 19 19 20 21 21 19 17 16 14 9 8 9
6 6 6 6 5 4 3 2 3 5 6 5 4 2 1 3 5 6 7 10 13 16 19 23 27 28 28 27 24 20 18 19 19 20 19 19 17 15 14 13 10 8 8 9
10 12 13 12 9 7 5 5 6 6 5 4 4 3 4 5 6 6 9 11 14 17 21 24 27 27 26 23 20 18 18 19 19 18 17 16 13 12 11 10 10 9 9 9
9 10 11 11 10 9 8 8 8 7 7 6 6 6 6 7 7 8 9 12 15 19 22 25 26 25 21 18 18 18 19 19 18 17 15 13 12 10 10 10 10 10 10 10
9 9 9 9 9 9 9 9 8 8 7 7 6 7 8 8 8 9 11 13 17 21 24 25 25 23 21 19 19 20 21 20 19 17 15 13 11 10 10 10 10 11 11 13
10 9 7 7 7 7 8 8 7 6 6 6 6 8 8 8 9 11 13 16 20 23 24 26 27 27 24 22 22 24 25 24 22 20 17 15 13 12 11 10 11 12 12 13
10 8 5 3 2 3 4 5 5 4 4 5 7 8 9 10 11 12 14 18 21 23 25 29 31 30 27 27 28 28 29 29 27 25 22 19 17 15 14 13 12 13 13 14
10 7 6 4 2 2 3 4 4 3 3 6 8 8 9 10 11 12 15 18 20 22 26 30 33 32 31 32 33 33 33 33 32 31 28 25 22 20 18 16 16 16 16 16
14 12 10 8 6 4 4 5 5 4 4 8 9 9 10 10 10 12 14 16 18 20 24 29 32 33 35 37 36 35 35 35 35 35 34 32 29 26 23 20 18 17 16 15
15 14 13 11 9 7 7 6 6 6 7 11 11 11 10 9 10 12 13 14 15 17 21 25 29 31 34 37 37 37 38 37 37 38 37 37 35 33 29 26 23 20 17 15
14 14 13 13 11 9 9 9 8 8 11 15 14 12 11 9 10 11 12 12 13 15 19 22 25 28 31 33 35 37 38 40 41 41 42 42 41 40 38 34 31 26 22 18
15 13 12 12 11 10 12 12 11 12 14 17 15 13 12 10 10 10 11 11 12 14 16 19 22 25 27 29 32 34 36 38 40 41 43 44 45 45 44 43 40 37 33 28

GEFSNGP_500_meanwind_012.txt.gz
Wind_Speed
40 41 42 40 37 36 37 36 35 36 38 41 42 43 43 44 45 42 37 33 34 37 39 39 37 36 37 39 42 45 48 50 53 55 57 59 60 59 58 57 56 57 57 58
41 41 43 44 44 42 41 43 44 45 46 46 46 47 48 48 46 38 31 32 36 41 42 43 42 43 43 44 46 49 51 53 55 57 58 58 57 57 57 57 58 58 58 59
40 39 40 44 47 46 45 45 46 47 48 48 50 51 51 50 45 38 37 38 41 44 45 46 47 47 47 48 49 50 52 52 53 53 53 52 54 56 57 58 58 57 56 56
41 38 35 38 43 45 47 48 49 47 46 45 45 45 45 45 45 45 46 46 47 48 48 48 48 48 48 48 48 49 48 47 47 48 49 52 53 55 55 54 54 53 53 51
36 35 33 32 35 39 42 45 47 49 50 50 48 48 49 50 50 49 50 49 49 48 47 46 46 47 46 46 45 43 42 43 45 48 49 51 52 52 52 51 50 50 48 47
36 35 35 34 34 37 39 43 43 44 46 48 48 47 48 49 50 50 49 48 47 46 45 45 45 45 44 43 40 40 41 43 45 47 48 48 49 49 49 47 46 45 45 45
33 33 34 34 33 33 36 38 40 42 44 46 47 47 47 47 47 48 48 47 46 44 43 43 43 43 41 39 38 38 39 40 42 44 45 46 46 45 44 43 43 43 43 43
22 23 25 25 25 26 28 30 33 37 39 41 43 44 45 45 45 45 44 42 41 41 41 41 41 39 38 36 36 37 38 40 42 43 42 41 41 41 42 42 42 41 40 37
20 22 23 23 23 23 23 24 27 30 33 35 37 39 40 41 41 40 38 38 38 39 39 39 37 35 34 34 35 36 38 38 39 39 39 40 41 41 41 40 38 36 32 29
20 21 22 23 24 25 26 27 28 29 31 33 34 35 36 36 36 36 36 36 36 36 35 34 32 32 32 33 34 34 35 36 37 38 39 40 40 39 36 34 31 27 25 25
20 22 24 24 25 27 28 29 30 31 32 33 34 35 35 35 35 34 33 33 32 30 29 28 28 29 30 31 32 33 35 36 37 38 37 36 34 32 29 26 24 24 25 25
21 23 25 26 27 28 29 29 29 29 30 30 30 30 30 30 28 27 25 24 23 23 23 24 25 26 28 30 32 34 36 36 36 34 32 29 27 25 24 24 24 24 24 23
19 21 23 23 24 24 23 23 24 24 24 23 23 23 21 19 17 15 14 15 17 18 19 21 24 26 29 32 34 35 35 33 30 28 25 23 22 22 23 22 21 20 19 18
16 17 17 17 17 18 18 18 18 18 17 16 14 11 10 8 8 9 10 11 12 15 18 21 24 27 30 31 32 30 28 25 23 22 22 21 21 21 19 17 16 15 14 13
13 12 11 10 9 9 9 9 10 9 8 7 5 6 6 6 7 7 7 9 12 15 19 22 25 27 28 27 25 23 21 20 20 20 20 19 17 16 14 12 12 11 10 8
10 9 6 3 1 1 1 2 3 4 4 3 3 4 4 3 3 4 7 10 13 16 19 22 24 25 24 22 21 20 20 20 19 18 16 15 13 11 10 9 9 9 8 7
8 6 5 4 4 3 3 4 5 5 5 5 4 4 4 4 5 6 9 12 15 18 21 23 24 23 22 21 20 20 20 19 18 15 13 11 9 8 8 8 8 8 8 9
4 4 3 3 4 6 8 8 9 9 8 8 8 8 7 8 8 10 12 15 19 22 24 24 24 23 23 23 22 21 19 18 16 13 11 9 8 7 7 7 7 9 10 11
1 3 4 5 7 8 10 11 11 10 10 10 10 10 10 10 11 14 17 19 21 23 25 25 25 25 24 23 23 21 20 18 15 13 10 9 8 8 8 9 10 11 12 14
3 4 5 7 9 10 11 11 11 11 11 11 11 11 12 13 14 16 18 21 23 24 25 26 26 26 26 26 25 24 22 19 16 14 12 11 10 10 10 11 11 12 14 16
6 5 6 7 9 9 10 10 11 11 12 12 12 12 12 13 14 16 18 22 23 24 26 27 29 29 29 28 28 26 24 21 18 16 14 13 13 12 13 13 14 15 16 17
8 6 6 6 7 8 8 9 9 10 11 11 11 11 12 12 13 15 19 21 23 24 26 29 31 31 32 32 31 30 27 25 22 19 18 17 17 16 15 15 16 16 16 17
11 8 6 5 6 6 6 7 8 9 10 11 10 10 10 11 12 15 18 20 22 24 27 29 31 33 34 34 34 33 31 29 27 25 23 21 20 18 17 16 16 16 15 15
12 9 6 4 4 4 4 5 6 7 9 10 10 9 9 9 11 13 16 18 21 23 26 28 31 32 33 34 35 35 35 34 32 30 27 25 22 19 17 16 15 14 14 14
13 10 7 5 3 3 3 4 6 7 9 10 9 9 9 8 9 11 14 16 19 21 24 25 28 30 32 33 35 36 36 37 37 35 32 29 26 22 18 15 14 12 12 12
13 11 9 7 5 5 5 5 7 9 10 10 10 9 8 8 8 9 12 14 17 19 21 22 25 27 29 31 33 34 35 37 38 38 37 35 32 28 24 19 15 12 11 11
13 11 9 8 7 7 7 8 9 11 13 12 11 10 8 8 8 8 10 13 16 16 17 20 23 25 27 28 30 32 34 35 36 37 38 38 37 35 32 28 23 18 15 14

GEFSNGP_500_meanwind_018.txt.gz
Wind_Speed
33 35 36 35 36 36 37 38 38 38 39 41 42 40 38 37 36 35 35 36 37 39 41 42 44 45 46 45 43 43 44 45 47 48 49 50 51 53 54 57 59 60 60 60
37 38 40 40 39 40 40 39 40 42 43 44 43 43 41 40 39 38 39 39 41 42 43 44 44 46 46 47 47 47 47 46 47 48 49 50 51 53 54 56 57 57 57 57
39 40 41 43 43 43 43 42 42 42 43 45 43 42 41 40 38 38 38 38 39 41 43 44 46 48 49 49 48 48 47 46 47 47 48 49 51 52 53 54 54 55 56 56
37 39 40 39 38 38 39 39 39 40 39 39 38 37 37 37 37 38 40 42 44 46 47 49 50 50 50 49 49 48 47 46 46 46 47 49 50 50 51 52 52 53 54 54
31 33 36 35 33 32 32 32 32 34 34 34 34 34 35 36 38 40 43 45 46 48 49 50 50 50 50 50 48 47 45 45 45 46 47 48 48 48 49 49 50 51 51 51
25 27 28 28 28 27 28 29 29 30 32 33 35 35 36 37 39 41 42 44 45 47 48 49 49 49 48 47 45 43 43 43 44 45 46 46 46 47 47 48 48 49 49 49
20 22 23 24 24 24 25 27 29 31 32 34 35 36 37 39 40 41 42 43 44 45 46 46 46 45 44 43 42 42 42 43 43 43 44 44 45 45 46 46 47 47 47 47
15 16 16 18 20 22 23 24 26 28 30 32 34 35 36 37 37 38 39 40 41 41 41 41 41 41 41 41 41 41 41 41 41 41 42 42 43 44 44 45 45 45 44 42
14 14 14 15 17 19 20 22 24 26 28 29 30 31 32 33 33 34 36 37 37 38 39 39 39 39 39 38 38 38 38 38 38 39 40 41 42 43 43 42 41 39 37 34
13 14 15 16 17 18 20 22 23 25 26 27 29 30 30 31 32 33 34 35 36 36 36 36 35 34 33 34 34 34 35 36 37 38 40 40 40 40 39 36 34 31 29 28
13 14 16 17 18 20 21 23 24 26 27 28 29 30 31 31 31 32 32 31 31 30 28 27 27 27 28 30 31 33 35 36 37 38 38 37 35 33 31 29 27 27 26 25
15 16 17 18 20 21 23 24 25 26 27 27 27 27 27 26 26 25 24 23 21 20 20 21 23 24 26 29 31 33 34 35 34 33 32 30 28 27 26 25 25 24 22 21
15 16 17 18 19 20 20 21 21 20 20 20 20 19 19 19 17 16 15 15 16 17 18 19 21 24 27 29 30 31 31 30 29 27 26 25 23 23 22 21 19 18 17 15
14 15 15 15 15 15 15 14 14 13 12 12 12 11 11 10 9 10 12 12 13 14 16 19 22 24 26 27 28 28 27 26 24 23 22 20 19 17 16 14 13 12 12 11
12 12 12 11 9 8 7 6 5 5 5 4 4 4 4 5 6 7 8 9 12 15 17 20 22 23 24 24 24 23 22 21 20 18 16 15 13 11 9 9 8 8 8 7
10 9 7 6 5 4 3 2 2 1 1 0 0 1 2 3 4 6 8 11 13 16 18 20 22 23 23 22 21 20 19 17 15 13 11 9 8 6 5 5 5 6 7 8
7 5 3 4 4 5 4 4 4 3 3 4 4 5 6 7 8 10 11 12 15 17 19 21 23 23 22 22 20 19 17 14 11 9 8 6 6 5 5 6 8 9 11 13
4 2 2 3 4 4 5 5 5 5 6 7 8 9 10 10 11 11 12 15 17 20 22 23 23 23 22 22 20 17 14 12 10 8 8 7 8 9 10 11 12 14 15 16
3 1 1 3 3 4 5 5 6 7 8 10 11 12 12 12 12 13 15 18 20 23 24 25 25 25 24 22 20 17 15 13 11 11 11 12 13 13 14 15 16 17 17 17
2 0 2 3 4 5 6 6 7 8 10 11 12 12 12 13 14 16 18 20 23 25 26 27 27 27 26 24 22 19 17 16 15 15 15 16 16 17 17 17 18 18 18 17
4 3 4 5 5 6 6 7 7 9 10 11 11 12 12 14 15 17 19 21 24 26 27 28 28 29 28 26 25 23 22 21 20 19 18 18 19 19 19 19 18 18 17 16
7 6 6 6 6 6 6 7 8 9 10 10 10 11 12 14 15 17 19 21 24 25 26 28 29 30 30 29 27 26 25 24 23 21 20 19 19 19 18 18 17 17 16 15
10 9 8 7 7 7 7 7 8 9 9 9 9 10 12 14 15 16 19 21 23 24 25 27 29 30 31 31 30 28 27 25 23 21 19 18 17 17 17 16 16 16 15 15
13 11 10 9 8 7 7 7 7 8 8 8 8 10 11 12 14 15 17 20 21 23 25 26 28 29 31 32 31 30 28 26 23 20 17 16 15 15 15 15 15 15 15 15
15 13 11 10 9 8 7 7 8 8 9 8 8 9 10 11 12 14 16 17 19 21 23 25 26 28 29 30 31 30 29 28 25 22 19 15 13 13 13 13 14 15 15 15
17 15 13 10 9 8 8 8 9 9 9 9 8 8 9 10 11 12 14 15 17 19 21 22 24 26 27 29 30 30 30 29 28 26 23 19 16 14 14 14 14 14 15 15
18 16 14 12 11 10 9 9 10 11 11 10 9 9 8 9 9 10 12 13 15 17 18 19 21 23 24 26 28 29 31 31 31 30 28 25 23 20 18 17 16 16 15 15

GEFSNGP_500_meanwind_024.txt.gz
Wind_Speed
24 25 25 26 27 28 31 32 32 33 34 35 34 34 34 34 35 36 36 37 38 39 40 41 43 43 44 44 45 45 45 46 46 48 50 51 53 53 52 52 53 53 54 55
24 26 28 29 30 31 32 33 35 36 37 37 37 37 37 38 39 40 41 41 42 44 45 46 46 46 46 46 45 45 46 47 48 50 51 52 52 52 52 52 53 54 55 55
21 24 26 29 32 32 34 34 35 37 38 38 38 39 39 40 41 43 43 44 44 45 45 45 44 43 42 42 43 44 46 48 50 51 51 51 51 52 53 53 53 54 54 54
18 19 23 29 29 31 33 35 36 37 37 38 38 39 39 39 39 40 40 40 39 39 40 40 40 40 41 42 43 45 47 49 50 50 51 51 51 52 52 52 52 53 53 54
15 17 20 24 25 28 30 33 33 35 35 35 36 37 37 37 37 38 36 36 36 37 38 37 38 39 40 42 44 46 48 49 49 49 50 50 50 50 51 51 51 52 52 52
13 14 18 19 19 21 24 27 28 29 30 30 30 32 32 33 33 33 32 32 34 35 37 39 40 41 42 44 45 46 46 47 47 48 48 49 49 50 50 49 49 49 49 49
11 13 15 14 15 17 20 22 23 24 25 26 28 28 28 28 29 31 32 33 35 36 38 39 40 41 42 42 43 44 45 46 47 47 48 48 47 47 46 46 46 46 46 46
11 12 13 12 13 16 19 20 21 22 22 23 24 25 27 28 29 30 31 32 33 35 36 37 38 39 41 42 43 43 44 44 44 43 43 43 43 43 43 43 44 44 44 44
11 11 11 11 12 14 16 18 20 21 22 23 24 25 26 27 29 30 31 32 33 34 35 36 38 39 39 39 40 40 40 39 39 39 39 40 40 41 41 42 42 41 40 39
11 11 11 11 12 13 15 17 19 20 21 22 24 25 26 27 28 29 30 31 32 33 34 34 35 35 35 35 35 35 35 36 37 37 38 38 38 38 38 38 37 36 34 33
11 12 12 13 13 14 15 16 18 19 21 22 24 25 25 26 26 26 27 27 28 29 29 29 29 30 30 30 31 32 34 34 35 36 35 35 35 34 33 32 31 30 28 27
11 11 12 13 13 14 15 16 17 19 20 21 21 21 21 21 21 21 21 22 22 23 23 24 25 25 27 28 30 31 32 33 33 32 31 30 29 28 27 25 24 22 21 20
11 11 11 11 11 12 12 13 14 15 16 16 16 16 15 15 15 15 16 16 18 19 20 21 23 25 27 29 30 30 30 29 28 27 25 24 23 21 19 17 16 15 14 12
10 10 10 9 9 9 9 9 9 10 10 10 10 10 10 10 10 11 12 13 15 17 20 22 25 26 27 27 27 26 25 24 22 21 19 17 15 13 12 11 10 8 7 6
9 8 7 6 7 6 5 5 5 5 4 4 5 6 6 7 8 9 10 13 16 18 21 23 24 24 24 24 23 22 20 18 16 14 12 10 8 7 6 5 5 4 4 5
8 7 5 5 5 4 3 3 2 1 1 1 1 2 3 4 6 9 11 14 16 19 20 21 22 22 22 20 18 16 14 12 10 7 6 4 4 3 3 4 5 6 8 11
6 5 4 4 4 3 3 3 3 3 3 3 3 3 4 6 8 11 13 15 17 18 19 20 21 21 19 17 15 13 11 9 7 6 5 5 5 6 7 8 10 11 13 14
4 3 3 3 2 2 3 4 4 5 5 6 6 6 6 8 10 12 14 16 17 19 20 21 21 21 20 18 16 13 12 10 9 9 9 9 10 11 12 12 13 14 15 16
3 3 3 2 1 3 4 5 6 6 7 7 7 7 8 10 12 13 15 16 18 20 21 22 22 21 20 19 17 15 14 13 12 12 12 13 14 14 15 15 15 16 16 16
4 2 2 2 3 4 5 6 7 7 7 7 7 8 9 10 12 13 15 17 19 21 22 23 23 22 21 20 18 17 16 15 15 15 15 16 16 16 16 16 16 15 15 15
4 4 4 4 4 5 6 6 7 7 7 7 7 8 9 10 12 13 15 17 19 21 22 23 23 23 22 20 19 18 17 16 16 16 16 16 16 16 16 16 15 14 14 13
6 6 6 6 6 6 6 7 7 7 7 7 7 8 8 9 11 13 15 16 19 21 22 23 23 23 22 21 19 17 16 15 15 15 15 15 15 15 14 14 13 12 12 11
8 8 7 7 7 7 7 7 7 7 6 6 6 6 7 9 11 13 14 16 18 20 21 23 23 22 21 20 19 18 15 13 13 13 13 13 13 13 13 12 12 11 11 10
11 10 10 9 9 8 8 8 8 7 6 6 5 5 5 7 9 11 13 15 17 18 20 21 23 23 22 21 19 18 16 13 12 12 12 12 12 12 12 12 12 11 11 10
13 12 12 11 10 9 9 9 8 8 6 5 4 3 4 5 7 9 11 13 15 17 18 20 21 22 23 23 21 19 16 14 12 11 11 11 11 11 11 12 12 12 12 11
15 14 14 12 11 10 10 9 9 9 8 6 5 3 3 4 6 8 9 11 13 15 17 18 19 21 22 24 23 22 19 16 14 12 12 11 11 11 11 11 12 12 13 13
16 16 15 14 12 11 10 10 10 10 9 8 6 5 3 3 4 6 8 10 11 14 15 17 18 19 20 22 24 24 24 22 20 17 15 14 13 12 12 12 12 13 13 14

GEFSNGP_500_meanwind_030.txt.gz
Wind_Speed
18 17 16 17 21 24 26 27 27 29 34 38 37 36 36 35 33 32 32 33 34 36 37 38 39 40 41 42 44 45 47 49 51 52 53 54 55 55 55 55 55 54 54 55
15 15 17 18 19 20 21 24 28 31 35 38 40 39 38 36 33 32 33 35 37 39 41 42 43 44 45 47 48 49 50 51 52 53 53 53 53 53 53 53 54 54 55 56
13 14 15 20 24 24 26 27 28 31 32 34 34 37 36 33 30 32 34 36 38 40 41 42 44 46 47 49 50 51 51 51 51 51 50 50 50 50 51 53 54 55 55 55
10 13 16 23 24 26 27 30 31 33 36 38 39 37 36 36 37 38 37 38 39 40 40 41 41 42 42 43 45 45 45 45 45 46 46 46 47 48 50 51 52 52 53 53
10 11 16 21 22 24 26 29 30 32 35 38 40 42 41 40 40 39 38 38 38 38 38 38 38 38 38 39 40 41 40 40 42 44 45 45 46 47 49 50 50 51 52 52
12 13 18 21 21 21 23 27 27 29 30 32 34 36 36 35 35 34 34 35 36 37 37 37 38 39 40 40 40 40 40 42 43 44 45 45 46 47 48 48 49 49 49 49
15 15 18 18 20 19 21 23 23 24 25 26 27 29 29 30 30 31 31 31 32 32 33 34 36 37 38 38 39 40 41 42 43 44 44 45 45 46 46 46 46 46 46 46
16 17 17 17 17 18 19 20 21 22 22 23 24 24 25 25 26 27 28 30 31 31 32 34 35 36 37 38 39 40 41 42 42 42 42 43 43 43 44 44 44 44 44 43
17 17 17 16 16 16 17 18 19 20 20 20 21 21 22 23 24 26 27 29 30 31 33 34 34 35 36 37 38 39 39 39 40 40 40 41 41 41 41 42 42 41 41 40
18 18 17 16 15 15 16 17 17 18 19 18 19 20 20 22 23 25 26 27 28 29 30 31 32 33 34 34 35 36 37 37 38 38 39 39 39 39 39 39 38 37 36 35
18 17 16 15 14 15 15 16 16 17 18 18 19 20 20 22 23 23 24 25 25 26 27 28 29 30 32 33 34 35 36 37 37 37 37 36 36 35 34 33 31 30 28 27
17 16 16 14 14 14 14 15 15 16 17 17 18 19 20 21 21 21 21 21 22 23 25 27 28 30 31 33 34 34 35 34 34 33 32 31 29 28 27 25 23 22 20 19
16 15 14 13 13 12 13 13 14 14 15 16 17 17 18 18 17 18 19 20 21 22 24 26 27 29 30 31 31 30 29 29 28 27 26 24 22 20 18 17 15 14 13 12
15 14 13 12 11 11 11 12 12 13 13 14 14 14 14 15 15 16 17 19 20 22 24 25 26 27 28 27 26 25 24 22 20 19 18 16 14 12 10 9 10 10 9 8
14 13 11 11 10 10 10 10 10 10 10 10 11 11 11 12 13 15 17 18 20 21 22 22 23 24 24 23 21 20 18 15 14 13 11 10 8 8 7 6 6 6 6 7
13 12 10 9 8 8 8 8 8 7 6 6 7 8 9 11 13 14 16 17 18 19 20 20 21 21 21 19 18 16 15 13 12 11 10 9 8 8 8 7 7 7 8 10
12 11 9 8 7 7 7 6 4 4 4 4 6 7 9 11 12 14 15 16 17 17 18 19 19 20 19 18 17 16 15 13 13 12 12 11 11 10 10 10 10 10 11 12
12 10 8 8 7 6 5 4 3 2 2 4 5 7 9 11 12 14 15 16 17 17 17 18 18 19 18 18 17 16 15 14 14 14 13 13 13 13 13 13 13 13 13 14
11 9 8 7 6 5 4 3 2 1 2 4 6 8 9 11 12 14 15 16 17 17 18 18 18 18 17 16 16 15 14 14 14 14 14 14 14 14 14 14 14 14 15 15
10 8 7 6 5 4 3 2 1 1 2 4 6 8 9 11 12 14 16 17 18 18 19 18 17 17 16 16 15 14 14 14 14 14 14 14 14 14 14 14 14 14 14 15
10 8 7 5 4 4 3 2 1 1 2 4 6 8 9 11 12 14 15 17 18 19 19 17 16 16 16 16 14 12 12 12 12 13 13 13 13 13 13 13 13 13 13 13
9 8 7 5 4 4 4 3 2 1 2 3 5 7 9 11 12 14 16 17 18 18 18 18 17 17 16 15 12 10 10 11 11 11 11 11 11 11 11 11 11 10 10 11
9 8 7 6 5 5 4 4 3 1 1 2 4 7 9 11 12 14 16 17 18 18 19 19 19 18 16 14 11 10 9 9 10 10 10 10 10 10 10 10 9 8 8 8
10 9 8 7 6 6 5 5 4 2 1 1 3 5 8 10 11 13 16 17 18 19 19 19 20 20 17 13 11 11 9 8 9 9 9 10 10 10 10 9 8 7 7 7
10 9 9 8 8 7 6 6 5 4 2 1 2 4 7 9 10 12 14 16 18 18 18 19 20 20 19 16 15 12 10 8 8 8 9 9 9 9 9 9 8 7 7 7
11 10 10 9 9 9 8 7 6 6 4 3 2 3 5 7 9 11 13 14 16 16 16 16 17 19 21 21 19 16 13 10 9 9 9 9 9 9 9 9 9 8 8 8
11 11 11 10 10 10 9 8 7 7 6 5 3 2 3 5 8 10 11 13 14 15 16 17 18 19 20 21 21 20 17 15 13 12 11 11 10 10 10 10 10 10 10 10

GEFSNGP_500_meanwind_036.txt.gz
Wind_Speed
14 17 21 24 26 25 28 29 31 34 37 40 40 39 38 37 35 35 36 37 37 39 41 44 44 43 43 42 43 44 46 47 48 50 51 52 53 54 55 56 57 58 58 59
11 14 16 18 21 23 24 28 30 33 36 39 40 40 40 39 37 35 34 35 37 37 37 39 41 41 41 41 42 43 45 46 47 49 50 52 53 55 56 56 57 58 59 58
9 11 12 14 16 18 20 23 26 30 33 36 38 37 37 35 34 34 33 32 34 35 37 37 37 37 38 40 42 43 44 45 45 46 48 49 50 52 53 54 54 53 53 52
8 10 12 11 12 15 18 20 22 25 27 30 32 33 32 32 32 32 30 29 29 29 30 32 34 37 39 41 41 42 43 45 46 46 47 47 47 48 48 49 48 48 47 47
8 9 10 12 14 15 17 19 20 22 23 25 27 29 29 28 28 28 28 27 27 28 29 30 32 34 36 38 40 41 42 44 45 46 46 47 47 46 46 46 46 46 46 47
9 10 10 11 14 15 16 18 18 19 19 19 20 21 23 23 23 24 24 25 25 27 27 28 29 31 34 36 39 40 41 42 43 43 43 43 43 43 44 44 45 45 45 45
11 11 11 11 13 15 16 16 17 17 17 17 17 17 17 18 19 20 21 22 23 24 26 28 29 30 32 33 35 36 38 39 39 40 40 40 41 42 42 43 43 43 43 44
13 12 11 12 12 13 14 14 15 14 14 14 14 15 15 16 17 18 18 20 21 23 25 26 28 29 30 32 33 34 35 36 37 37 38 39 39 40 40 41 41 41 41 42
13 12 11 12 12 12 12 12 12 11 11 12 12 13 14 15 16 17 18 19 21 22 23 24 25 27 28 29 30 31 32 34 35 36 36 37 37 38 38 37 37 37 37 37
14 12 11 11 11 11 11 10 10 10 10 10 11 11 12 13 14 16 17 18 20 21 21 22 24 25 26 27 28 29 31 32 33 33 33 34 33 33 33 33 33 32 32 31
16 14 12 11 11 11 10 9 8 8 9 9 9 10 11 12 14 15 16 17 18 19 20 21 22 23 24 25 27 28 29 29 29 29 30 29 29 28 28 27 26 25 24 24
17 15 14 13 11 10 9 8 8 8 8 8 9 10 11 12 13 14 15 16 17 18 18 19 19 20 22 23 24 25 25 25 25 24 23 22 22 22 20 19 18 17 16 16
18 16 14 13 11 10 8 8 8 8 8 8 9 10 11 11 12 13 14 15 16 16 16 16 17 18 20 21 21 22 22 21 20 18 17 16 15 15 14 13 12 11 10 9
18 16 14 12 10 9 8 8 8 9 8 8 9 9 10 11 12 13 14 15 15 14 15 16 16 17 18 19 19 20 19 18 17 15 14 13 12 11 11 10 9 7 7 6
18 15 13 11 9 9 8 8 8 8 8 8 8 9 10 10 12 13 14 14 13 13 14 14 15 16 17 17 18 18 18 17 16 15 14 13 12 11 10 9 8 7 7 8
17 15 12 10 9 8 8 7 7 7 7 7 8 9 9 10 12 13 14 13 13 13 14 14 15 16 16 16 16 17 16 16 15 15 14 14 13 12 11 10 10 9 10 11
17 14 12 10 9 8 7 6 6 6 6 7 8 8 9 11 12 13 14 14 14 15 15 15 15 15 15 15 15 16 15 15 15 14 14 14 14 13 13 13 12 12 12 13
16 14 11 9 8 7 6 5 5 6 6 6 7 9 10 11 12 14 14 15 15 15 15 15 14 14 14 14 14 14 14 14 14 14 15 14 14 14 15 14 14 14 14 14
16 13 11 9 7 6 5 5 5 5 5 6 8 9 10 11 12 14 15 15 15 14 15 15 14 13 13 13 12 12 12 13 13 13 14 14 14 14 14 15 14 14 14 14
16 13 10 8 7 5 4 4 4 4 5 6 7 9 10 12 13 14 15 16 15 15 15 15 15 14 12 11 10 10 10 11 11 12 13 13 13 13 13 13 13 13 13 13
15 13 10 7 6 5 4 3 3 4 5 5 7 9 11 12 14 16 17 17 16 16 16 16 15 14 11 9 9 9 9 9 10 10 11 11 11 11 11 11 11 11 11 11
15 13 9 7 5 4 3 2 2 3 4 5 7 8 10 12 14 16 17 17 16 16 17 17 16 13 11 9 8 8 8 8 8 9 9 9 9 9 9 8 8 9 9 9
15 12 9 6 4 3 3 2 2 2 3 4 6 8 10 12 14 16 17 17 17 16 17 17 16 15 12 10 9 8 7 7 8 8 8 8 8 8 7 7 7 7 7 8
14 12 9 6 4 3 2 2 2 2 2 3 5 7 9 11 13 15 16 17 17 16 16 17 17 16 15 12 10 8 7 7 7 7 7 7 7 7 7 6 6 5 6 6
13 11 8 5 3 3 2 2 2 2 2 3 4 5 8 10 12 14 16 17 17 16 16 16 16 17 16 14 11 9 8 7 7 7 7 7 7 6 6 6 6 6 6 6
13 10 8 5 4 3 3 3 3 3 2 2 3 4 6 8 11 13 16 17 18 17 15 14 14 15 17 17 15 13 12 10 9 8 8 7 7 7 7 7 7 7 7 7
12 10 7 5 4 5 5 5 4 4 3 3 3 3 4 6 8 11 14 15 15 15 14 12 13 15 17 18 18 17 16 14 13 12 10 10 10 9 9 9 9 9 9 9

GEFSNGP_500_meanwind_042.txt.gz
Wind_Speed
10 12 15 17 19 20 23 25 27 29 30 32 34 36 37 38 39 40 40 41 42 43 42 41 40 41 40 41 42 43 43 44 45 46 46 46 46 47 48 49 50 49 50 52
7 10 13 16 18 21 23 26 28 30 32 32 33 34 35 37 38 38 39 39 40 40 39 38 36 37 38 38 37 37 38 38 39 41 43 45 46 47 47 48 50 50 52 53
4 7 10 12 14 17 20 23 26 28 29 30 31 32 33 34 35 35 35 36 36 34 33 34 33 32 32 33 32 33 34 35 36 38 40 41 44 45 46 48 49 51 54 55
6 8 9 11 13 15 18 20 22 24 25 26 27 27 28 29 30 31 31 31 32 31 30 30 30 29 29 29 30 31 33 34 36 38 40 42 44 46 48 50 51 52 53 54
8 8 10 11 13 14 16 18 19 20 22 23 24 24 24 24 24 24 25 26 27 27 27 27 26 27 28 29 31 32 33 34 36 38 40 42 43 46 48 49 51 52 53 53
9 10 11 11 13 14 15 16 16 17 18 18 19 20 20 20 20 20 21 22 22 22 23 23 23 25 27 28 30 32 33 34 36 37 39 40 42 44 45 47 48 50 51 51
12 13 13 13 14 14 14 14 14 14 14 13 14 15 16 16 16 16 17 17 17 18 19 21 22 24 25 27 29 30 32 33 35 36 38 39 41 43 44 45 46 47 47 47
14 14 14 15 14 14 13 13 12 12 12 11 11 12 13 13 14 14 14 15 15 16 18 19 20 22 23 25 26 27 29 30 32 34 36 38 40 41 42 43 43 43 43 42
15 15 15 14 13 13 12 12 11 10 10 10 10 11 11 11 12 12 13 13 14 15 17 18 19 20 21 22 23 24 26 28 30 32 34 35 36 37 37 37 37 37 37 36
17 16 16 15 14 13 12 11 10 9 8 8 9 9 9 10 10 11 12 12 13 14 15 16 17 18 19 19 21 23 24 26 27 29 30 32 32 32 32 31 31 30 29 28
17 17 16 15 14 12 11 10 9 8 7 7 7 8 8 9 10 10 11 12 13 13 14 15 15 16 16 17 19 21 22 23 25 26 28 28 27 27 26 25 24 23 22 20
18 17 16 14 13 11 9 8 8 7 7 7 7 7 7 8 9 10 11 12 12 13 13 13 14 14 15 16 18 19 20 21 23 24 25 25 24 23 22 20 19 17 16 14
18 17 16 14 12 10 8 7 7 6 6 6 5 6 6 8 8 10 11 11 11 12 12 13 13 13 14 15 16 18 19 20 20 22 22 22 21 20 19 17 15 13 12 10
18 17 16 14 12 10 8 7 6 6 5 5 5 6 7 8 9 10 11 11 12 12 13 13 13 13 14 14 15 16 17 18 18 19 19 19 19 18 16 15 13 11 10 10
18 17 16 14 12 10 8 7 6 5 5 5 5 6 7 8 10 11 12 13 13 12 12 12 13 13 13 13 14 15 15 16 17 17 18 18 17 16 15 14 13 12 11 11
18 17 16 14 12 10 8 7 6 6 5 6 6 7 8 10 11 12 13 13 13 12 13 13 13 12 12 12 12 13 14 15 15 16 16 16 16 16 15 14 14 13 13 13
18 18 16 14 12 10 9 7 6 6 6 6 7 8 10 11 11 12 13 13 13 13 13 13 13 12 11 11 11 12 12 13 13 14 14 15 15 15 14 14 13 13 13 14
18 18 16 14 12 10 8 7 6 6 6 7 8 9 11 12 12 13 14 14 14 14 13 14 13 12 10 9 9 10 10 11 11 12 13 13 13 13 14 13 13 14 14 14
18 18 16 14 12 10 8 6 6 6 6 7 8 10 11 13 14 15 15 15 15 14 14 13 12 10 8 7 7 8 9 10 10 10 11 11 11 12 12 12 13 13 13 14
18 18 16 15 12 10 7 6 5 6 6 7 9 10 12 13 15 15 16 16 16 15 14 13 12 10 8 7 7 8 8 9 9 9 9 9 9 9 10 10 10 11 11 11
17 17 16 14 12 10 7 6 5 5 6 7 9 11 12 14 15 16 17 16 16 15 15 14 13 11 9 8 8 8 8 8 8 8 8 8 8 8 7 8 8 8 8 8
16 16 16 14 12 9 7 6 5 5 5 6 8 10 12 14 16 17 17 16 16 15 16 15 15 13 11 11 9 8 7 7 7 7 7 7 7 6 6 6 6 6 6 6
15 15 15 14 11 9 7 5 5 5 5 6 7 9 11 13 15 17 18 17 16 15 16 16 16 16 14 12 11 9 8 7 7 7 7 6 6 5 5 4 4 4 5 5
14 14 14 13 11 9 7 5 5 4 5 5 7 8 10 12 14 16 17 17 16 16 16 16 17 17 16 14 12 10 9 8 7 7 7 6 6 5 4 4 4 3 4 4
14 13 13 12 10 8 7 5 5 4 4 5 6 8 9 11 12 15 16 17 16 16 16 17 18 18 18 16 14 13 12 10 9 8 7 6 6 6 5 5 4 4 5 5
13 12 12 11 10 8 7 6 5 5 4 4 5 7 8 9 11 13 14 15 16 16 15 15 16 17 18 17 16 15 14 13 11 10 9 8 8 8 7 6 6 6 6 7
13 12 11 11 9 8 7 6 5 5 4 4 5 6 7 8 9 11 12 14 15 16 15 15 15 15 16 17 17 16 15 15 14 13 12 11 11 10 10 9 9 9 9 9

GEFSNGP_500_meanwind_048.txt.gz
Wind_Speed
6 8 10 12 14 15 17 19 21 23 24 25 26 27 28 29 31 32 33 34 35 36 38 39 40 40 41 41 42 42 42 42 42 42 42 43 44 45 45 46 48 48 48 49
4 7 9 11 14 16 18 20 22 24 25 26 26 27 28 29 30 31 32 33 33 34 35 35 36 36 37 37 38 38 39 40 41 41 42 42 42 42 42 44 46 47 48 49
2 5 7 10 12 15 17 19 21 23 24 25 25 26 27 28 28 28 29 29 30 30 31 32 32 33 33 34 34 35 36 37 38 38 39 40 39 40 42 43 45 46 47 49
3 4 7 8 11 13 16 18 20 21 22 23 23 24 25 26 26 26 26 26 27 28 28 29 30 30 31 32 32 33 34 35 36 36 37 38 39 40 42 43 45 47 48 50
6 6 7 9 11 13 15 17 18 19 20 21 22 23 24 24 24 23 23 24 25 26 26 26 27 27 28 29 30 31 32 33 34 35 37 38 39 39 41 42 44 45 47 49
7 8 9 10 11 13 14 15 15 16 17 17 18 19 19 19 20 21 20 20 21 22 22 22 23 25 26 27 27 28 29 29 30 31 33 34 35 36 38 40 42 44 45 47
9 9 9 11 11 12 12 13 13 14 14 14 14 14 15 15 16 16 16 17 18 19 19 20 21 22 23 23 24 25 25 26 27 28 30 31 33 34 36 38 39 41 43 44
11 11 11 12 11 11 12 12 11 11 10 11 11 11 12 12 12 13 14 15 15 16 17 18 19 19 20 21 22 22 23 24 24 26 27 28 29 31 32 34 35 36 37 36
12 12 12 12 11 11 10 10 9 8 8 7 8 9 9 10 10 10 11 12 13 14 16 17 17 18 18 19 19 20 20 20 22 23 24 25 27 28 29 31 31 31 29 27
13 14 14 13 12 11 10 8 7 7 7 6 6 6 6 7 8 9 10 11 12 13 14 15 15 16 16 17 17 18 18 18 19 21 22 23 25 26 26 26 26 24 23 20
15 15 14 13 12 11 9 8 7 7 6 6 6 6 6 6 7 8 9 10 11 12 12 13 14 14 14 14 14 15 16 17 18 19 20 21 22 22 22 21 20 18 16 14
15 16 15 14 13 11 9 8 7 7 6 6 6 6 6 6 7 8 9 10 11 11 12 12 13 13 13 13 13 14 14 15 16 17 18 19 19 18 18 17 16 14 12 11
15 15 15 14 13 11 10 8 7 7 6 6 6 6 6 7 8 8 9 10 10 11 12 12 12 12 12 12 12 12 13 14 15 15 16 16 15 15 15 14 13 11 10 10
15 15 15 14 13 12 10 9 7 6 6 6 6 6 7 7 8 9 10 10 11 11 12 12 12 12 12 11 11 11 11 12 13 13 13 13 13 13 12 11 10 10 10 10
15 15 15 14 14 12 10 9 7 6 6 6 6 6 7 8 9 9 10 11 11 12 12 11 11 11 11 10 10 10 10 10 11 11 11 11 11 11 11 10 9 9 10 11
14 15 15 14 13 12 10 9 7 6 6 6 6 7 8 9 10 11 11 11 12 12 11 11 11 10 9 8 8 7 8 8 8 8 9 9 9 9 9 9 9 9 10 10
14 15 15 14 13 12 10 9 8 6 6 6 7 8 9 10 11 12 12 12 12 12 12 11 10 8 7 6 6 6 6 6 7 7 7 8 8 8 8 8 9 9 9 9
14 15 15 14 13 12 10 9 8 7 7 7 8 9 11 12 13 13 13 13 13 13 12 11 10 8 6 6 5 5 5 5 6 6 6 6 7 7 7 7 8 8 8 8
13 14 15 14 14 12 10 9 8 7 7 7 8 10 12 13 14 14 14 14 14 13 13 11 10 8 7 6 5 5 5 5 5 5 5 5 5 5 6 6 6 6 6 6
12 14 14 14 13 12 11 9 8 7 7 8 9 10 12 13 14 15 15 15 15 15 14 13 11 9 7 6 6 5 4 4 4 4 4 3 3 3 4 4 4 4 4 4
11 13 14 14 13 12 11 10 8 8 7 8 9 10 12 14 15 16 16 16 15 15 15 14 12 10 8 7 6 5 4 4 3 3 3 2 2 2 2 2 3 3 3 3
11 12 13 13 12 12 11 10 9 8 7 7 8 10 12 13 15 16 17 16 16 15 15 15 14 12 10 9 7 5 4 4 3 2 2 2 2 2 1 1 1 2 2 3
10 11 12 12 12 11 10 9 8 8 7 7 8 9 11 13 14 16 17 17 16 16 16 16 16 14 12 11 8 7 6 4 3 2 2 2 2 2 1 1 1 1 2 2
9 10 11 11 11 11 10 9 8 7 7 7 7 8 10 11 13 15 16 16 16 16 16 16 16 15 14 13 11 9 7 6 4 4 3 3 3 2 2 2 2 2 2 2
9 9 10 11 10 10 9 8 8 7 7 6 7 7 9 10 12 14 15 15 16 16 16 16 16 16 15 15 13 11 10 8 7 6 5 5 4 4 4 4 3 3 3 3
9 9 10 10 10 9 9 8 7 7 6 6 6 6 7 9 10 12 14 14 15 16 16 16 16 16 16 15 15 14 12 11 10 8 8 7 7 6 6 5 5 5 5 6
10 10 10 10 10 9 9 8 7 6 6 5 5 6 6 7 9 10 12 13 14 15 15 15 15 15 15 15 15 14 13 13 12 11 10 9 9 8 8 7 7 7 7 8

GEFSNGP_500_meanwind_054.txt.gz
Wind_Speed
2 4 5 6 9 13 16 21 23 24 24 23 22 19 19 20 22 24 26 28 30 32 33 34 35 36 37 38 39 40 41 43 44 45 46 46 47 48 48 48 49 50 51 52
3 1 1 6 10 14 17 20 23 24 26 26 26 24 23 23 24 25 27 29 30 31 32 33 34 36 37 37 38 39 40 41 42 43 43 44 45 46 46 47 48 49 49 49
3 1 4 8 10 12 15 18 21 24 25 27 27 26 26 25 25 26 27 28 29 30 31 32 33 33 34 35 37 37 38 38 39 40 40 41 41 43 44 45 46 47 47 47
3 3 6 8 10 13 15 17 21 23 26 27 27 27 27 27 26 26 26 27 28 29 30 30 30 32 33 34 34 34 35 35 36 36 37 38 39 40 41 42 43 43 44 45
6 7 9 11 12 15 17 18 20 21 23 24 25 26 26 25 25 25 26 26 26 26 26 26 27 27 29 29 30 31 31 32 33 33 34 34 35 36 37 38 39 40 41 42
7 9 10 12 14 16 18 17 18 19 20 21 22 21 21 21 21 22 22 23 23 23 23 24 24 25 25 26 26 27 27 28 28 29 30 31 32 33 34 34 36 36 37 39
10 11 12 14 16 17 17 17 18 18 17 17 17 17 17 17 17 18 18 19 19 19 20 21 21 22 22 23 23 24 24 24 25 25 26 27 28 29 30 31 31 33 34 35
11 12 14 16 16 16 16 17 16 15 14 14 13 13 13 13 13 14 14 15 15 16 16 17 18 19 19 19 20 20 21 22 22 23 23 23 24 25 26 27 28 29 29 29
12 13 14 15 15 15 15 14 14 12 11 11 10 10 11 11 11 12 12 13 13 13 14 15 15 16 17 17 18 18 18 19 19 19 20 21 22 23 23 24 24 24 23 22
12 14 15 15 15 15 14 14 13 12 10 10 9 9 9 9 9 9 10 11 12 12 13 14 15 15 15 15 15 15 15 16 16 17 18 19 19 20 20 19 19 18 18 17
13 15 16 16 16 16 15 14 13 12 11 10 9 8 8 8 8 9 10 11 12 12 13 13 13 14 14 14 14 14 14 14 15 16 16 16 17 16 15 15 15 14 13 12
14 16 17 17 17 17 16 14 13 12 11 10 9 8 8 8 8 9 9 10 11 12 12 12 12 12 12 13 13 13 13 13 14 14 14 14 13 12 12 12 12 11 10 10
14 16 17 18 18 18 16 15 14 12 11 10 9 9 9 9 9 9 10 10 10 11 11 12 12 12 12 12 12 12 13 12 13 12 11 11 10 10 10 10 9 8 8 8
14 16 17 18 18 18 17 15 14 13 11 10 10 9 9 10 10 10 10 11 11 11 12 12 12 12 12 12 11 11 11 11 10 10 9 8 8 8 8 7 7 6 6 7
13 15 17 18 18 18 17 15 14 13 12 11 10 10 11 11 12 12 11 11 12 12 12 12 12 11 11 10 10 9 9 9 8 8 7 7 6 6 6 6 6 5 5 6
13 15 17 17 18 18 17 16 15 13 12 11 11 11 12 13 13 13 12 12 12 12 12 11 11 10 9 8 8 7 7 7 6 6 6 5 5 5 5 5 4 4 5 5
12 14 16 17 18 18 17 16 15 14 13 12 12 12 13 14 14 14 13 13 13 13 12 11 10 9 8 7 6 6 6 6 5 5 5 4 4 4 4 4 3 4 4 5
11 14 15 17 18 18 17 16 15 14 13 12 13 13 14 14 15 15 15 15 14 14 13 12 11 9 8 7 6 5 5 5 5 4 4 3 3 3 3 3 3 3 3 4
11 13 15 16 17 18 17 16 16 15 14 13 13 14 15 15 16 16 16 16 15 14 14 13 11 10 9 7 6 5 5 5 4 4 3 3 3 3 3 3 3 3 4 4
10 12 14 16 17 17 17 17 16 15 14 13 14 14 15 16 16 17 17 17 17 16 15 14 13 11 9 7 6 5 5 4 4 4 3 3 3 3 3 3 3 4 4 5
9 11 13 15 16 16 16 16 16 15 14 14 14 14 15 16 17 17 17 18 18 17 17 16 14 12 9 8 6 5 4 4 3 3 3 3 3 3 3 4 4 5 5 5
8 10 12 14 15 16 16 16 16 15 14 14 14 14 15 16 17 17 18 18 18 18 17 16 15 14 12 10 9 7 5 4 4 3 3 2 3 3 3 4 4 4 5 5
8 10 11 13 14 15 15 15 15 15 14 14 14 14 14 15 16 17 17 18 18 18 18 18 17 16 15 14 11 9 8 7 6 5 4 3 3 3 4 4 4 4 4 5
9 10 11 12 13 14 14 15 15 15 14 14 14 14 14 15 15 16 17 18 18 18 18 18 18 17 16 14 12 11 10 9 8 7 6 5 5 5 4 4 4 4 4 4
10 10 11 12 13 13 14 14 14 14 14 14 13 13 14 14 15 16 17 17 18 18 18 17 17 17 16 14 13 13 12 11 10 9 8 8 7 7 6 5 5 5 5 6
12 11 12 12 12 13 13 13 13 13 13 13 13 13 13 14 14 14 15 16 16 17 17 17 17 17 16 15 15 15 14 13 12 10 10 10 9 9 8 8 7 7 7 7
14 13 13 12 12 12 12 13 13 13 13 13 12 12 12 13 13 13 14 14 15 15 16 16 16 16 17 17 16 15 14 14 13 13 12 11 11 11 10 10 9 9 9 9

GEFSNGP_500_meanwind_060.txt.gz
Wind_Speed
5 7 9 10 9 10 12 14 16 17 18 19 19 19 19 18 17 16 18 22 22 23 25 27 28 30 31 31 32 33 33 34 35 35 36 37 38 39 41 41 42 43 43 43
4 6 6 7 7 9 12 14 15 17 18 19 20 20 20 19 19 18 19 21 22 23 25 27 28 28 29 30 31 31 32 32 33 34 35 36 37 38 39 40 40 41 41 41
1 2 4 4 5 7 10 12 14 16 17 18 19 19 18 19 19 19 20 21 22 23 25 26 27 28 28 29 29 29 30 31 32 33 34 35 35 36 36 37 37 37 38 38
4 4 3 3 5 6 9 11 14 15 16 17 17 18 18 18 19 19 19 20 21 22 23 24 26 26 27 27 27 28 28 29 29 30 30 31 32 33 33 33 34 34 35 36
5 6 5 7 9 10 11 13 15 16 17 18 17 17 16 15 16 16 17 17 18 20 21 22 23 24 24 24 25 25 25 26 26 27 28 29 29 29 29 30 31 32 33 33
8 9 9 11 12 13 14 14 16 16 17 16 16 15 14 13 13 14 14 15 16 17 19 20 21 22 22 22 23 23 24 24 24 24 24 24 25 25 26 27 28 29 28 28
10 11 12 13 14 15 16 16 16 16 15 14 13 12 11 11 12 13 14 14 14 15 16 16 17 18 19 20 20 21 21 21 21 21 21 22 22 23 23 24 25 24 24 22
11 12 13 14 15 15 16 15 15 14 12 12 11 11 11 10 10 11 12 13 13 13 14 14 15 16 17 17 18 18 18 19 19 19 20 20 21 21 20 20 20 19 18 17
11 12 13 14 15 15 15 14 14 13 12 11 10 10 9 9 9 9 10 10 11 12 12 13 14 15 15 15 16 16 17 17 17 18 18 17 17 17 16 15 15 14 13 13
11 12 13 15 16 16 16 15 13 13 12 11 10 10 9 8 8 8 8 8 9 10 11 12 13 14 14 15 15 15 15 15 15 15 14 13 13 13 12 12 11 11 11 10
10 12 14 16 17 17 17 16 14 13 12 11 10 9 8 8 7 7 7 7 8 9 10 11 11 12 12 13 14 14 14 14 13 12 11 11 11 11 10 10 9 9 9 9
11 13 15 17 18 18 17 17 15 14 12 11 11 10 9 8 8 8 8 8 8 8 9 10 10 11 11 11 12 12 11 11 10 10 10 9 9 9 8 8 8 8 7 7
12 14 16 18 19 19 18 17 16 14 13 12 11 11 10 9 9 9 9 8 8 8 9 9 9 9 9 9 10 10 10 10 10 9 9 8 8 7 7 7 7 6 6 6
12 14 17 18 19 19 18 18 16 15 14 13 12 12 11 11 10 10 9 9 8 8 9 9 9 8 8 8 9 9 9 9 9 8 7 7 6 6 6 5 5 5 5 5
11 14 16 18 19 19 19 18 17 16 14 14 13 13 13 12 12 11 10 10 10 10 10 9 9 8 8 8 8 7 7 7 7 6 6 5 5 5 5 5 4 4 5 5
11 14 16 18 19 19 19 18 17 16 15 15 14 14 14 13 13 12 12 12 12 11 11 10 9 8 8 8 7 6 6 6 5 5 4 4 4 4 4 4 3 3 4 4
10 13 15 18 19 19 19 18 17 16 16 16 16 15 15 15 14 14 14 14 14 12 11 10 9 8 7 7 6 5 4 4 3 4 4 4 4 3 3 3 3 3 4 4
9 12 14 17 19 19 19 19 18 17 17 17 16 16 16 16 16 16 17 16 15 14 12 11 9 8 7 6 5 4 3 3 3 3 3 3 3 3 2 2 2 3 4 5
7 10 13 16 18 19 19 19 18 18 17 17 17 17 17 17 17 17 18 18 17 16 14 13 11 10 8 6 5 4 3 2 2 2 2 2 2 2 2 2 2 3 4 5
6 9 12 15 17 18 18 18 18 18 18 18 18 17 17 18 18 18 19 19 18 17 17 16 15 13 11 9 7 6 4 3 3 2 1 1 1 2 2 2 3 3 4 5
4 8 10 13 16 17 18 18 18 18 18 18 18 18 18 18 18 19 19 20 19 19 18 18 17 16 13 11 9 8 7 6 4 3 2 2 2 2 2 2 3 3 4 4
3 6 9 12 14 16 18 18 18 18 18 18 18 18 18 18 19 19 19 19 20 20 19 19 17 16 15 13 12 11 9 8 7 6 5 5 4 4 3 3 3 3 3 4
2 5 8 11 13 15 17 17 18 18 17 17 18 18 18 18 19 19 19 19 20 20 20 19 18 17 15 15 14 13 11 9 8 8 7 6 6 5 5 4 4 4 4 5
3 4 7 9 12 14 15 16 17 17 17 17 17 17 18 18 18 18 19 19 19 20 20 20 19 18 17 16 15 14 13 12 11 10 10 9 8 8 7 7 6 6 6 6
4 4 6 9 11 12 14 15 16 16 16 16 16 16 17 17 17 17 18 18 19 19 19 19 19 19 19 18 17 15 14 14 14 13 12 11 11 10 10 9 8 8 8 8
6 5 6 8 10 11 12 14 14 15 15 15 15 15 15 15 15 16 17 17 18 18 18 18 18 18 18 18 17 17 16 16 16 15 14 13 12 12 11 10 10 9 9 9
9 7 7 8 9 10 11 12 13 13 14 14 14 14 14 14 14 15 15 16 17 17 17 17 17 17 17 17 17 17 17 17 16 15 15 14 13 12 12 11 11 10 10 10

GEFSNGP_500_meanwind_066.txt.gz
Wind_Speed
4 5 6 7 8 10 11 12 13 13 13 13 13 14 15 15 16 16 16 17 18 20 22 23 24 25 25 26 26 26 26 26 26 26 26 27 27 27 28 29 30 31 32 33
4 5 6 7 8 9 10 11 12 12 13 12 13 14 15 15 16 17 17 18 19 19 21 22 23 24 25 26 26 27 26 26 26 26 26 26 26 26 27 28 29 30 31 32
4 5 6 7 8 9 10 11 12 13 13 13 13 13 14 15 15 16 16 17 18 18 19 20 21 23 24 25 25 25 25 26 25 25 25 26 26 26 27 28 28 28 29 30
4 5 6 7 9 9 10 11 12 12 13 14 14 14 14 14 14 14 15 17 17 18 19 19 20 21 22 23 23 23 24 24 24 24 24 25 25 25 26 26 26 26 27 28
4 6 6 8 8 9 10 11 11 12 12 12 13 13 12 12 12 13 14 15 16 17 17 18 19 19 20 20 20 21 21 21 21 22 22 22 23 23 23 23 23 23 24 24
5 6 7 8 9 10 11 11 11 11 11 11 11 10 10 10 11 11 12 13 14 15 15 16 16 17 18 18 18 18 18 19 19 19 20 20 20 21 20 20 21 21 21 21
5 7 8 10 11 12 12 12 12 11 11 10 9 9 9 9 10 11 12 12 12 13 13 13 14 15 16 16 16 16 16 16 17 17 18 18 19 19 19 18 18 18 18 18
6 8 9 11 12 13 13 13 12 11 10 9 9 9 9 9 9 10 11 12 13 13 13 13 13 14 14 15 15 16 16 16 17 17 17 17 17 17 16 16 16 16 15 15
7 9 10 12 13 14 14 13 12 11 10 9 9 9 9 8 9 9 10 11 11 12 12 12 13 14 14 14 14 15 15 16 16 16 16 15 15 14 14 13 13 13 13 12
7 9 11 13 14 14 14 14 13 12 11 10 10 10 9 9 9 9 10 10 11 11 11 12 12 13 13 13 13 14 14 14 14 14 14 13 13 12 12 11 11 10 10 10
8 10 12 13 14 14 14 14 13 12 11 11 10 10 10 9 9 9 9 9 10 10 11 11 11 11 11 12 12 12 12 13 12 12 12 11 10 10 10 9 9 8 8 8
8 10 12 13 14 15 15 15 14 13 12 11 11 11 10 10 9 8 8 9 9 9 9 10 10 10 11 11 11 11 12 12 11 11 11 10 9 9 8 7 7 6 7 7
8 10 12 14 15 16 16 16 15 14 13 12 12 11 11 10 9 8 8 8 8 8 8 9 9 9 9 9 9 10 10 10 10 9 9 8 7 6 6 6 5 5 6 6
7 10 12 14 15 16 16 17 16 15 15 14 13 13 12 11 10 9 9 9 8 8 8 7 7 7 8 7 7 7 7 7 7 6 6 6 6 5 5 5 4 5 5 5
7 10 12 14 15 16 17 17 17 17 16 15 14 14 13 12 11 11 10 9 9 8 8 7 7 7 6 6 6 6 5 5 5 5 5 5 4 4 4 4 4 5 5 5
6 9 11 14 15 16 17 18 18 18 17 16 16 15 14 14 13 12 12 11 10 9 8 7 7 6 6 6 5 5 4 4 3 3 3 3 3 3 3 4 4 4 5 5
6 9 11 13 15 16 17 18 18 18 18 17 16 16 15 15 15 14 13 12 11 10 9 9 7 6 5 4 4 3 3 2 2 1 1 1 2 2 2 3 3 4 4 5
5 8 10 13 15 16 17 18 19 19 18 18 17 16 16 16 16 16 15 14 13 12 12 11 10 9 8 6 5 4 3 2 2 1 0 0 0 1 1 2 3 3 4 5
4 7 9 12 14 16 17 18 18 19 19 18 18 18 18 18 17 17 16 16 15 15 14 14 13 12 11 10 8 7 6 5 4 3 3 2 2 2 2 2 3 3 4 5
4 6 8 11 13 15 16 17 18 18 19 19 18 18 19 19 18 18 18 17 16 16 16 15 14 14 12 11 11 10 9 8 7 6 5 4 3 3 2 2 3 3 4 4
4 5 7 9 12 14 16 17 17 18 18 18 18 19 19 20 19 19 19 19 18 17 17 16 16 15 14 13 12 12 11 10 9 8 7 6 5 5 4 4 4 4 4 5
4 4 6 8 10 12 14 16 16 17 17 18 18 18 19 20 20 20 20 20 20 19 19 18 17 16 15 14 13 13 12 11 11 10 10 9 8 7 7 6 6 6 6 6
4 4 5 7 9 11 13 14 15 16 17 17 17 17 18 18 19 20 20 20 20 19 19 19 19 18 18 16 15 14 14 14 13 12 12 11 10 10 10 9 9 9 9 9
5 3 3 6 8 10 12 13 14 15 15 16 16 16 17 17 18 19 19 19 19 19 19 19 19 19 19 18 17 17 16 15 14 14 13 13 13 13 12 12 12 11 11 11
7 4 2 4 6 8 10 11 12 14 14 14 15 15 16 16 17 17 18 19 19 19 19 19 19 19 18 18 18 18 18 17 17 16 15 15 15 15 14 14 14 13 13 13
8 6 3 1 3 6 8 9 11 12 13 13 13 14 14 15 15 16 16 17 17 18 18 18 18 18 18 18 18 17 17 17 17 17 17 17 16 16 15 15 15 14 14 14
10 7 5 2 1 4 6 8 9 10 11 11 12 12 13 13 14 14 14 15 15 16 16 17 17 17 17 17 17 17 16 16 16 16 16 16 16 16 15 15 15 14 14 14

GEFSNGP_500_meanwind_072.txt.gz
Wind_Speed
7 7 8 8 9 9 9 10 11 12 13 13 13 13 14 14 14 14 15 15 16 18 20 21 22 24 25 26 26 27 27 27 27 26 26 26 26 26 26 25 25 25 26 26
7 7 8 8 9 9 10 10 11 12 13 13 13 14 14 14 14 15 16 17 17 18 20 22 22 23 24 25 25 26 26 26 26 26 25 25 25 26 25 25 24 24 25 26
7 7 8 9 9 10 11 11 12 13 13 13 14 14 14 14 15 15 16 17 18 18 19 19 21 22 22 22 23 24 24 24 24 24 24 25 24 24 24 24 24 25 25 26
6 7 8 9 10 10 11 12 13 13 13 14 14 14 14 14 14 15 16 17 18 18 18 18 20 21 21 22 22 23 22 23 22 22 22 22 23 23 23 24 23 23 24 24
6 7 8 10 10 11 12 12 13 13 13 13 13 13 13 13 13 14 15 15 16 16 16 16 17 17 17 18 19 19 19 20 20 20 21 21 21 21 22 22 22 23 23 23
6 7 9 10 11 11 12 12 12 12 12 11 11 11 11 12 13 14 14 15 15 15 15 15 16 16 16 17 18 18 18 18 19 19 19 20 20 20 20 21 21 21 21 21
6 7 8 10 11 11 11 11 12 11 11 10 10 10 11 11 12 12 12 13 14 15 14 14 14 15 16 17 17 17 17 17 17 18 18 18 19 19 19 19 19 19 20 19
5 6 8 9 10 11 11 11 11 10 10 10 9 9 10 9 10 10 11 11 12 12 12 12 12 13 14 14 14 15 15 16 16 17 17 17 18 18 18 18 18 18 17 16
4 6 7 8 9 10 11 11 11 10 10 9 9 8 8 8 8 9 9 10 10 11 12 12 12 13 12 12 13 13 14 14 14 14 15 16 16 16 16 16 16 15 14 14
4 5 6 8 9 10 11 11 10 10 9 9 8 8 7 7 7 7 8 9 9 10 10 11 11 12 12 12 12 12 13 13 13 13 13 13 13 14 14 13 13 13 12 12
2 4 5 7 9 10 11 11 11 10 9 8 7 7 7 6 5 6 6 7 8 9 9 10 10 10 10 10 11 11 11 11 12 12 12 12 12 12 12 12 11 11 11 11
1 3 5 7 9 10 11 11 11 11 10 9 8 8 7 6 5 5 4 4 5 5 6 6 7 8 8 9 9 10 10 10 10 10 10 10 10 11 11 11 11 10 10 9
1 3 5 7 9 10 11 11 11 11 11 10 9 8 8 7 5 5 4 4 3 4 4 5 6 6 7 7 8 8 8 9 9 9 9 9 9 10 10 9 9 9 9 8
2 3 5 7 9 10 11 12 12 11 11 10 10 9 9 8 7 6 5 5 4 4 4 4 5 5 5 5 5 6 7 7 7 7 8 8 8 8 8 8 8 8 7 7
3 3 5 7 9 10 12 12 12 12 12 11 11 11 10 9 8 7 7 6 5 5 4 4 3 3 2 2 3 4 4 5 5 5 6 6 6 7 7 7 6 6 6 6
3 4 5 7 9 10 12 13 13 13 13 13 12 12 11 10 10 9 8 8 7 6 5 4 3 2 1 0 1 2 2 3 3 4 4 4 4 5 5 5 5 5 5 5
4 4 5 7 9 10 12 13 13 14 14 14 14 13 12 12 11 11 11 10 9 8 8 7 5 4 3 2 2 2 1 1 2 3 3 3 3 3 3 3 4 4 4 4
5 4 5 7 9 10 12 13 13 14 15 15 15 15 14 14 13 13 12 12 11 11 10 9 9 7 6 6 5 4 4 4 3 3 2 2 2 2 2 2 2 2 2 2
6 5 5 6 8 10 12 13 13 14 15 15 16 16 16 16 15 14 14 14 13 13 12 11 11 11 10 9 9 8 7 6 5 4 3 3 2 2 2 1 1 1 0 0
7 5 5 6 8 9 11 12 13 14 15 16 16 17 17 18 18 17 17 16 16 15 14 14 13 13 12 12 10 10 9 8 7 6 5 5 4 4 4 3 3 3 3 2
8 6 5 6 7 9 10 12 13 14 15 15 16 17 18 18 18 19 18 18 17 16 16 15 15 14 13 13 12 12 11 10 10 9 8 8 7 7 6 6 5 5 5 5
9 7 6 5 6 8 10 11 13 13 14 15 16 16 17 17 18 19 19 19 18 17 16 16 15 15 14 14 13 13 13 12 12 11 11 10 9 9 8 8 8 8 7 7
10 8 6 5 6 7 9 10 12 13 14 14 15 16 16 17 17 18 19 19 19 18 18 17 17 16 16 16 15 15 14 14 13 13 12 12 11 11 10 10 10 9 9 9
12 9 7 6 5 6 8 9 11 12 13 14 14 15 15 16 16 17 18 18 19 19 19 18 18 17 17 17 17 16 16 15 15 14 14 14 13 13 12 12 11 11 11 10
13 11 9 7 5 5 6 8 9 11 12 13 13 14 14 15 15 16 16 17 18 18 18 18 18 18 18 18 17 16 16 16 16 16 15 15 14 13 13 12 12 12 11 11
15 12 10 8 5 4 5 6 7 9 10 11 12 12 13 13 13 14 15 15 16 16 17 17 17 18 18 18 17 17 16 16 15 15 15 14 14 14 13 13 12 12 11 11
17 14 11 9 6 4 3 4 5 7 8 9 10 11 11 11 12 12 13 13 14 14 15 15 16 16 16 16 16 16 16 15 15 14 14 13 13 13 13 12 12 11 11 11

GEFSNGP_500_meanwind_078.txt.gz
Wind_Speed
9 8 8 10 11 13 15 17 18 19 19 20 20 19 18 17 17 17 17 17 17 18 19 20 21 22 22 22 23 25 26 26 26 26 27 27 27 26 27 27 27 27 27 27
8 8 9 10 11 14 16 17 18 19 20 20 21 20 19 18 18 18 18 18 18 19 20 21 21 22 22 22 23 24 24 25 26 26 26 25 25 26 26 26 27 27 27 27
8 8 8 10 12 14 17 19 19 19 20 20 20 20 19 19 20 19 19 19 20 20 20 21 22 22 22 23 23 23 23 24 24 25 26 25 25 24 25 25 25 25 25 25
9 8 9 10 11 14 17 19 20 19 20 20 20 20 20 20 20 20 20 20 20 21 21 21 21 21 21 21 21 22 23 24 23 24 24 24 24 25 24 24 24 25 25 24
9 8 9 10 11 15 18 19 19 19 20 20 20 21 21 20 19 19 19 19 19 20 19 18 18 18 19 20 20 20 21 21 22 22 22 22 23 24 23 23 23 23 23 23
10 9 11 11 12 15 18 19 19 20 20 20 20 21 19 19 19 19 19 18 18 17 17 17 16 16 16 17 17 18 18 19 19 20 20 20 20 20 21 21 21 20 20 20
10 12 12 12 15 17 19 20 21 20 20 20 20 19 19 19 18 18 18 18 17 16 15 16 15 15 14 14 15 15 16 16 16 17 17 17 18 19 19 19 19 19 19 19
12 13 13 14 16 17 19 19 20 20 20 19 19 19 18 18 17 17 17 17 15 15 14 14 14 14 14 14 14 14 14 14 15 15 15 16 17 17 17 17 18 18 17 17
12 12 12 13 15 16 18 19 20 19 18 18 18 17 17 16 16 15 14 13 13 12 12 12 12 12 12 13 13 13 13 13 14 14 14 14 15 15 15 15 15 15 16 16
12 11 11 13 14 16 17 19 19 18 17 17 17 16 15 15 14 12 11 11 10 10 10 9 9 10 10 10 11 12 12 12 12 12 12 12 12 13 13 13 13 14 14 14
10 10 10 11 13 15 16 18 18 17 16 16 16 15 14 13 12 10 9 9 9 8 7 7 8 8 8 9 10 10 10 10 11 11 11 11 11 11 11 11 11 11 11 12
7 8 9 11 13 14 16 17 17 16 16 15 14 13 13 11 10 8 8 8 7 8 7 7 7 8 7 7 8 8 9 9 9 9 9 9 9 9 9 9 9 10 10 11
7 7 8 10 12 14 15 16 16 15 15 14 14 13 12 11 9 8 7 6 7 7 6 7 7 7 7 7 6 6 6 7 7 7 8 8 8 8 8 8 9 9 9 10
6 6 7 9 11 13 14 15 15 15 14 14 13 13 11 10 9 8 7 7 6 6 6 6 6 5 5 4 4 4 4 5 5 6 6 7 7 7 7 8 8 7 7 8
5 4 6 8 10 12 13 14 14 14 14 13 13 13 11 10 9 8 8 7 6 6 6 5 5 4 3 2 2 3 3 3 3 4 4 5 5 5 6 6 6 6 6 6
4 3 5 7 9 11 13 14 14 14 14 14 14 13 12 11 10 9 9 8 7 6 6 6 5 4 3 2 1 1 1 1 2 1 1 1 2 3 3 3 4 4 4 4
5 2 3 6 8 10 12 13 14 14 14 15 14 14 13 12 11 11 10 8 7 6 6 6 6 5 4 3 2 2 1 1 2 2 1 1 1 1 1 2 3 3 3 3
5 1 2 5 7 9 11 13 14 14 15 15 15 14 14 13 13 12 11 10 9 8 7 7 7 6 5 5 5 4 4 4 4 3 3 3 3 2 3 3 3 3 3 3
6 3 1 4 7 9 11 12 13 13 14 15 15 15 15 14 14 14 13 12 11 11 10 10 9 9 8 8 8 7 7 6 6 5 5 5 5 5 5 5 5 5 5 5
7 4 1 3 6 8 10 11 12 13 14 14 15 15 15 16 16 16 15 15 14 13 13 13 12 12 11 11 11 10 9 9 9 8 7 7 7 7 6 6 6 6 6 7
9 6 3 2 5 7 9 11 11 13 14 14 15 15 16 16 17 17 17 16 16 16 15 15 15 14 14 13 13 13 13 13 12 11 10 10 9 9 9 8 8 8 8 8
10 7 4 3 4 6 8 10 11 12 13 14 15 15 16 16 17 17 17 18 17 17 17 17 16 15 15 15 15 15 16 15 14 13 13 12 11 11 11 10 10 10 10 9
12 9 6 4 4 5 7 9 10 11 12 13 14 15 16 16 17 17 18 18 19 19 18 18 18 17 17 16 16 17 17 17 16 15 14 14 13 13 13 12 12 11 11 11
13 11 8 5 4 4 6 7 9 10 11 13 13 14 15 16 17 17 18 18 19 19 19 19 19 18 18 17 17 18 18 17 17 16 16 15 15 14 14 13 13 13 12 12
15 12 9 7 5 4 4 6 8 9 10 11 13 13 14 15 16 16 17 18 18 18 18 18 18 18 18 17 17 18 18 18 17 17 17 16 15 15 15 14 14 13 13 12
17 14 11 9 6 4 4 5 6 8 9 10 11 12 13 14 14 15 16 16 16 16 16 17 17 17 17 16 17 18 18 17 16 16 16 15 15 15 14 14 13 13 13 12
19 16 13 10 7 5 4 4 4 6 7 9 10 11 12 12 13 14 14 14 14 15 15 15 15 15 15 15 16 16 16 16 15 15 15 14 14 13 13 13 12 12 12 11